Cecil Field, FL

10:53 AM EDT on August 18, 2017 (GMT -0400)
Cecil

Weather History for KVQQ - March, 2012

Change the Weather History Date:

Saturday, March 31, 2012

  Actual Average (KNIP) Record (KNIP)
Temperature  
Mean Temperature 66 °F -  
Max Temperature 75 °F 75 °F 89 °F (2016)
Min Temperature 57 °F 57 °F 41 °F (2003)
Cooling Degree Days 1    
Growing Degree Days 16 (Base 50)    
Moisture  
Dew Point 62 °F    
Average Humidity 95    
Maximum Humidity 100    
Minimum Humidity 73    
Precipitation  
Precipitation 0.00 in - - ()
Sea Level Pressure  
Sea Level Pressure 29.93 in    
Wind  
Wind Speed 2 mph (SW)    
Max Wind Speed 21 mph    
Max Gust Speed -    
Visibility 7 miles    
Events Fog , Rain , Thunderstorm    
Averages and records for this station are not official NWS values.
T = Trace of Precipitation, MM = Missing Value Source: NWS Daily Summary

Daily Weather History Graph

Daily Weather History Graph

Search for Another Location

Airport or City:

Trip Planner

Search our weather history database for the weather conditions in past years. The results will help you decide how hot, cold, wet, or windy it might be!

Date:

Astronomy

Mar. 31, 2012 Rise Set
Actual Time 7:17 AM EDT 7:46 PM EDT
Civil Twilight 6:53 AM EDT 8:10 PM EDT
Nautical Twilight 6:25 AM EDT 8:38 PM EDT
Astronomical Twilight 5:56 AM EDT 9:07 PM EDT
Moon 1:38 PM EDT (3/31) 2:46 AM EDT (3/31)
Length of Visible Light 13h 16m
Length of Day
12h 28m
First Quarter, 59% of the Moon is Illuminated
Mar 31
First Quarter
Apr 6
Full
Apr 13
Last Quarter
Apr 21
New
Apr 29
First Quarter

Hourly Weather History & Observations

Time (EDT) Temp. Dew Point Humidity Pressure Visibility Wind Dir Wind Speed Gust Speed Precip Events Conditions
12:15 AM 64.4 °F 60.8 °F 88% 29.99 in 10.0 mi Calm Calm - N/A   Scattered Clouds
12:35 AM 64.4 °F 60.8 °F 88% 29.99 in 10.0 mi Calm Calm - N/A   Mostly Cloudy
12:55 AM 66.2 °F 59.0 °F 78% 29.98 in 10.0 mi Calm Calm - N/A   Partly Cloudy
1:15 AM 64.4 °F 59.0 °F 83% 29.98 in 10.0 mi Calm Calm - N/A   Clear
1:35 AM 64.4 °F 59.0 °F 83% 29.98 in 10.0 mi Calm Calm - N/A   Clear
1:55 AM 62.6 °F 59.0 °F 88% 29.97 in 10.0 mi Calm Calm - N/A   Clear
2:15 AM 62.6 °F 59.0 °F 88% 29.97 in 10.0 mi Calm Calm - N/A   Clear
2:55 AM 59.0 °F 57.2 °F 94% 29.96 in 10.0 mi Calm Calm - N/A   Clear
3:15 AM 59.0 °F 57.2 °F 94% 29.96 in 10.0 mi Calm Calm - N/A   Partly Cloudy
3:35 AM 59.0 °F 59.0 °F 100% 29.95 in 10.0 mi Calm Calm - N/A   Scattered Clouds
3:55 AM 59.0 °F 59.0 °F 100% 29.95 in 10.0 mi Calm Calm - N/A   Mostly Cloudy
4:15 AM 59.0 °F 59.0 °F 100% 29.95 in 10.0 mi Calm Calm - N/A   Partly Cloudy
4:35 AM 59.0 °F 57.2 °F 94% 29.95 in 10.0 mi Calm Calm - N/A   Clear
4:55 AM 57.2 °F 57.2 °F 100% 29.95 in 10.0 mi Calm Calm - N/A   Clear
5:15 AM 57.2 °F 57.2 °F 100% 29.95 in 9.0 mi Calm Calm - N/A   Clear
5:35 AM 59.0 °F 59.0 °F 100% 29.94 in 9.0 mi Calm Calm - N/A   Clear
5:55 AM 60.8 °F 60.8 °F 100% 29.95 in 8.0 mi Calm Calm - N/A   Clear
6:15 AM 62.6 °F 62.6 °F 100% 29.95 in 7.0 mi Calm Calm - N/A   Clear
6:50 AM 64.4 °F 62.6 °F 94% 29.95 in 8.0 mi Calm Calm - N/A   Clear
7:50 AM 64.4 °F 62.6 °F 94% 29.97 in 10.0 mi SSW 9.2 mph - N/A   Clear
8:50 AM 68.0 °F 64.4 °F 88% 29.96 in 10.0 mi South 6.9 mph - N/A   Clear
9:34 AM 66.2 °F 64.4 °F 94% 29.97 in 6.0 mi South 4.6 mph - N/A Rain , Thunderstorm Light Thunderstorms and Rain
9:50 AM 66.2 °F 64.4 °F 94% 29.96 in 7.0 mi South 4.6 mph - N/A   Mostly Cloudy
10:28 AM 66.2 °F 64.4 °F 94% 29.97 in 5.0 mi Variable 4.6 mph - N/A Rain , Thunderstorm Light Thunderstorms and Rain
10:50 AM 66.2 °F 64.4 °F 94% 29.98 in 4.0 mi WNW 11.5 mph - N/A Rain , Thunderstorm Light Thunderstorms and Rain
11:25 AM 64.4 °F 64.4 °F 100% 29.97 in 2.0 mi WSW 9.2 mph - N/A Rain , Thunderstorm Thunderstorms and Rain
11:50 AM 64.4 °F 64.4 °F 100% 29.96 in 2.0 mi Variable 5.8 mph - N/A Rain , Thunderstorm Light Thunderstorms and Rain
12:05 PM 64.4 °F 64.4 °F 100% 29.94 in 5.0 mi Calm Calm - N/A   Mostly Cloudy
12:16 PM 64.4 °F 64.4 °F 100% 29.98 in 1.5 mi WNW 11.5 mph - N/A Rain , Thunderstorm Heavy Thunderstorms and Rain
12:50 PM 64.4 °F 64.4 °F 100% 29.95 in 2.5 mi Variable 6.9 mph - N/A Rain Light Rain
1:15 PM 64.4 °F 64.4 °F 100% 29.93 in 7.0 mi Variable 4.6 mph - N/A   Scattered Clouds
1:50 PM 66.2 °F 66.2 °F 100% 29.91 in 10.0 mi ESE 5.8 mph - N/A   Scattered Clouds
2:50 PM 69.8 °F 66.2 °F 88% 29.87 in 10.0 mi South 6.9 mph - N/A   Scattered Clouds
3:50 PM 75.2 °F 68.0 °F 78% 29.85 in 10.0 mi SSW 9.2 mph - N/A   Partly Cloudy
4:12 PM 75.2 °F 66.2 °F 73% 29.87 in 1.0 mi NNW 20.7 mph - N/A Rain , Thunderstorm Heavy Thunderstorms and Rain
4:26 PM 75.2 °F 66.2 °F 73% 29.87 in 1.0 mi NNW 20.7 mph - N/A Rain , Thunderstorm Heavy Thunderstorms and Rain
5:10 PM 66.2 °F 64.4 °F 94% 29.84 in 7.0 mi WSW 5.8 mph - N/A   Mostly Cloudy
5:50 PM 66.2 °F 66.2 °F 100% 29.82 in 7.0 mi South 4.6 mph - N/A   Scattered Clouds
6:50 PM 66.2 °F 66.2 °F 100% 29.84 in 6.0 mi Calm Calm - N/A Rain Light Rain
7:50 PM 64.4 °F 64.4 °F 100% 29.82 in 7.0 mi Calm Calm - N/A   Scattered Clouds
8:55 PM 64.4 °F 64.4 °F 100% 29.86 in 3.0 mi Calm Calm - N/A   Clear
9:15 PM 64.4 °F 64.4 °F 100% 29.88 in 5.0 mi Calm Calm - N/A   Mostly Cloudy
9:35 PM 62.6 °F 62.6 °F 100% 29.88 in 2.5 mi Calm Calm - N/A   Overcast
10:15 PM 60.8 °F 60.8 °F 100% 29.88 in 0.5 mi Calm Calm - N/A Fog Fog
10:35 PM 60.8 °F 60.8 °F 100% 29.88 in 0.8 mi Calm Calm - N/A   Mist
10:55 PM 62.6 °F 62.6 °F 100% 29.89 in 1.8 mi Calm Calm - N/A   Mostly Cloudy
11:15 PM 64.4 °F 64.4 °F 100% 29.89 in 0.8 mi WSW 4.6 mph - N/A   Overcast
11:35 PM 64.4 °F 64.4 °F 100% 29.90 in 0.8 mi Calm Calm - N/A   Overcast